This demonstration page uses our WeatherBlox Daily Observations layout. Learn more.

Left ArrowRight Arrow

Hourly Observations for June 1, 2020

Temp ( °F °C ) Dew Point ( °F °C ) Humidity (%) Winds ( mph kmh ) Pressure ( in mb ) Visibility ( mi km ) Precip ( " mm )
12:52 am 00:52 Clear 65 18.3 58 14.4 78 78 SE 7 11 30.16 1022 10 16 0.00 0.00
1:52 am 01:52 Clear 65 18.3 57 13.9 76 76 SSE 8 13 30.15 1021 10 16 0.00 0.00
2:52 am 02:52 Clear 64 17.8 57 13.9 78 78 S 8 13 30.15 1021 10 16 0.00 0.00
3:52 am 03:52 Clear 62 16.7 57 13.9 84 84 SSE 6 9 30.15 1021 10 16 0.00 0.00
4:52 am 04:52 Clear 61 16.1 57 13.9 87 87 SSE 5 7 30.16 1021 10 16 0.00 0.00
5:52 am 05:52 Clear 60 15.6 56 13.3 86 86 SSE 6 9 30.17 1022 10 16 0.00 0.00
6:52 am 06:52 Sunny 63 17.2 58 14.4 84 84 S 7 11 30.18 1022 10 16 0.00 0.00
7:52 am 07:52 Sunny 66 18.9 58 14.4 75 75 SSE 8 13 30.18 1022 10 16 0.00 0.00
8:52 am 08:52 Sunny 70 21.1 58 14.4 66 66 SSE 14 22 30.19 1022 10 16 0.00 0.00
9:52 am 09:52 Sunny 73 22.8 58 14.4 59 59 S 15 24 30.19 1022 10 16 0.00 0.00
10:52 am 10:52 Sunny 75 23.9 59 15 58 58 S 15 24 30.19 1022 10 16 0.00 0.00
11:52 am 11:52 Sunny 77 25 60 15.6 56 56 S 12 19 30.18 1022 10 16 0.00 0.00
12:52 pm 12:52 Sunny 78 25.6 59 15 52 52 SW 9 15 30.16 1021 10 16 0.00 0.00
1:52 pm 13:52 Sunny 80 26.7 60 15.6 51 51 SSE 10 17 30.14 1021 10 16 0.00 0.00
2:52 pm 14:52 Sunny 81 27.2 59 15 47 47 S 12 19 30.12 1020 10 16 0.00 0.00
3:52 pm 15:52 Sunny 82 27.8 62 16.7 51 51 SSE 13 20 30.10 1019 10 16 0.00 0.00
4:52 pm 16:52 Sunny 81 27.2 61 16.1 51 51 S 12 19 30.09 1019 10 16 0.00 0.00
5:52 pm 17:52 Sunny 79 26.1 61 16.1 54 54 SSE 7 11 30.07 1018 10 16 0.00 0.00
6:52 pm 18:52 Sunny 78 25.6 63 17.2 60 60 S 8 13 30.06 1018 10 16 0.00 0.00
7:52 pm 19:52 Sunny 76 24.4 62 16.7 62 62 S 7 11 30.06 1018 10 16 0.00 0.00
8:52 pm 20:52 Clear 74 23.3 62 16.7 67 67 S 7 11 30.07 1018 10 16 0.00 0.00
9:52 pm 21:52 Clear 71 21.7 62 16.7 73 73 S 8 13 30.09 1019 10 16 0.00 0.00
10:52 pm 22:52 Clear 69 20.6 62 16.7 78 78 S 8 13 30.09 1019 10 16 0.00 0.00
11:52 pm 23:52 Clear 68 20 61 16.1 78 78 S 8 13 30.09 1019 10 16 0.00 0.00

Powered by AerisWeather